Weather History for Charlottetown, PE

Change the Weather History Date:

Wednesday, November 24, 2010

  Actual Average Record
Temperature  
Mean Temperature 34 °F -  
Max Temperature 38 °F 33 °F 51 °F (2005)
Min Temperature 31 °F 20 °F 10 °F (2008)
Degree Days  
Heating Degree Days 30    
Moisture  
Dew Point 33 °F    
Average Humidity 97    
Maximum Humidity 100    
Minimum Humidity 91    
Precipitation  
Precipitation 0.28 in 0.17 in - ()
Sea Level Pressure  
Sea Level Pressure 29.49 in    
Wind  
Wind Speed 6 mph ()    
Max Wind Speed 16 mph    
Max Gust Speed 28 mph    
Visibility 4.4 miles    
Events Rain , Snow    
Averages and records for this station are not official NWS values.
T = Trace of Precipitation, MM = Missing Value Source: Averaged Metar Reports

Daily Weather History Graph

Daily Weather History Graph

Search for Another Location

Airport:

Trip Planner

Search our weather history database for the weather conditions in past years. The results will help you decide how hot, cold, wet, or windy it might be!

Date:

Astronomy

Nov. 24, 2010 Rise Set
Actual Time 7:26 AM AST 4:31 PM AST
Civil Twilight 6:52 AM AST 5:05 PM AST
Nautical Twilight 6:15 AM AST 5:42 PM AST
Astronomical Twilight 5:39 AM AST 6:18 PM AST
Moon 7:11 PM AST (11/24) 10:13 AM AST (11/24)
Length of Visible Light 10h 12m
Length of Day
9h 05m
Waning Gibbous, 90% of the Moon is Illuminated
Nov 24
Waning Gibbous
Nov 28
Last Quarter
Dec 5
New
Dec 13
First Quarter
Dec 21
Full

Hourly Weather History & Observations

Time (AST) Temp. Windchill Dew Point Humidity Pressure Visibility Wind Dir Wind Speed Gust Speed Precip Events Conditions
12:00 AM 32.0 °F 24.8 °F 30.2 °F 93% 29.69 in 8.0 mi East 8.1 mph - N/A Rain Light Rain
1:00 AM 32.0 °F 25.6 °F 32.0 °F 100% 29.64 in 6.0 mi East 6.9 mph - N/A Rain Light Rain
2:00 AM 33 °F - 31 °F 91% 29.61 in 5 mi East 5.8 mph - - Rain Light Rain
2:00 AM 32.0 °F 26.4 °F 32.0 °F 100% 29.61 in 5.0 mi East 5.8 mph - N/A Rain Light Rain
3:00 AM 32.0 °F 27.5 °F 32.0 °F 100% 29.57 in 5.0 mi SE 4.6 mph - N/A Rain Light Rain
4:00 AM 32.0 °F - 32.0 °F 100% 29.54 in 5.0 mi SSE 2.3 mph - N/A Rain Light Rain
5:00 AM 33.8 °F - 32.0 °F 93% 29.52 in 5.0 mi East 2.3 mph - N/A Rain Light Rain
5:52 AM 32.0 °F - - N/A% - 5.0 mi ENE 2.3 mph - N/A Rain Light Rain
6:41 AM 32.0 °F 28.7 °F - N/A% - 2.5 mi NE 3.5 mph - N/A Rain , Snow Light Rain
7:00 AM 32.0 °F 28.7 °F 32.0 °F 100% 29.49 in 2.0 mi NNE 3.5 mph - N/A Rain , Snow Light Rain
7:12 AM 32.0 °F 27.5 °F - N/A% - 1.5 mi NNE 4.6 mph - N/A Rain , Snow Light Rain
7:23 AM 32.0 °F 26.4 °F - N/A% - 1.5 mi NE 5.8 mph - N/A   Light Drizzle
7:46 AM 32.0 °F 26.4 °F - N/A% - 1.5 mi NE 5.8 mph - N/A   Light Drizzle
8:00 AM 33 °F - 32 °F 94% 29.49 in 1 mi NE 4.6 mph - - Rain Light Drizzle
8:00 AM 32.0 °F 27.5 °F 32.0 °F 100% 29.49 in 1.5 mi NE 4.6 mph - N/A   Light Drizzle
8:23 AM 32.0 °F 26.4 °F - N/A% - 0.8 mi NE 5.8 mph - N/A   Light Drizzle
9:00 AM 32.0 °F 26.4 °F 32.0 °F 100% 29.47 in 1.0 mi NE 5.8 mph - N/A   Light Drizzle
11:00 AM 33.8 °F 29.6 °F 33.8 °F 100% 29.44 in 1.5 mi NNE 4.6 mph - N/A   Light Drizzle
12:00 PM 33.8 °F 28.6 °F 33.8 °F 100% 29.42 in 2.0 mi NNE 5.8 mph - N/A   Light Drizzle
12:36 PM 33.8 °F 29.6 °F - N/A% - 2.0 mi North 4.6 mph - N/A Snow Light Snow
1:00 PM 33.8 °F 30.8 °F 33.8 °F 100% 29.41 in 2.0 mi North 3.5 mph - N/A Snow Light Snow
1:49 PM 33.8 °F 27.7 °F - N/A% - 4.0 mi North 6.9 mph - N/A Snow Light Snow
2:00 PM 35 °F - 34 °F 93% 29.40 in 5 mi North 6.9 mph - - Snow Light Snow
2:00 PM 35.6 °F 29.9 °F 33.8 °F 93% 29.40 in 5.0 mi North 6.9 mph - N/A Snow Light Snow
3:00 PM 33.8 °F 27.0 °F 32.0 °F 93% 29.40 in 2.0 mi NNW 8.1 mph - N/A Snow Light Snow
4:00 PM 33.8 °F 26.4 °F 33.8 °F 100% 29.41 in 3.0 mi NNW 9.2 mph - N/A Snow Light Snow
4:34 PM 33.8 °F 24.8 °F - N/A% - 3.0 mi NNW 12.7 mph - N/A Rain , Snow Light Rain
5:00 PM 33.8 °F 25.3 °F 33.8 °F 100% 29.42 in 4.0 mi NNW 11.5 mph 18.4 mph N/A Rain Light Rain
6:00 PM 35.6 °F 27.1 °F 33.8 °F 93% 29.42 in 6.0 mi NNW 12.7 mph 21.9 mph N/A Rain Light Rain
6:50 PM 35.6 °F 27.1 °F - N/A% - 8.0 mi NNW 12.7 mph 20.7 mph N/A Rain Light Rain
7:00 PM 35.6 °F 26.6 °F 35.6 °F 100% 29.43 in 10.0 mi NNW 13.8 mph 20.7 mph N/A Rain Light Rain
7:43 PM 37.4 °F 32.1 °F - N/A% - 10.0 mi North 6.9 mph - N/A Rain Light Rain
8:00 PM 38 °F - 36 °F 92% 29.46 in 10 mi North 9.2 mph - - Rain Light Rain
8:00 PM 37.4 °F 31.4 °F 37.4 °F 100% 29.46 in 10.0 mi North 8.1 mph 17.3 mph N/A Rain Light Rain
9:00 PM 37.4 °F 30.8 °F 35.6 °F 93% 29.47 in 6.0 mi North 9.2 mph 20.7 mph N/A Rain Light Rain
9:23 PM 37.4 °F 29.3 °F - N/A% - 5.0 mi North 12.7 mph 23.0 mph N/A Rain Light Rain
10:00 PM 37.4 °F 28.2 °F 37.4 °F 100% 29.49 in 5.0 mi North 16.1 mph 27.6 mph N/A Rain Light Rain
11:00 PM 37.4 °F 28.2 °F 35.6 °F 93% 29.51 in 6.0 mi NNW 16.1 mph 25.3 mph N/A Rain Light Rain